Вернуться в каталог

STARLINK-36201

АктивенСвязьVLEO
NORAD 67164·PAYLOAD·🇺🇸 United States

Запущен Dec 17, 2025 с Cape Canaveral Space Force Station

Loading…

Ближайшие Пролёты (ближайшие 24 часа)

TLE

СвежийSource: CelesTrak SupGP

Эпоха: Sep 15, 2026, 02:43 UTC

1 67164C 25303B   26258.11368056  .00037311  00000+0  13511-2 0  2585
2 67164  43.0014 320.5817 0001264 266.2664 300.7866 15.27567213    19

Отслеживайте STARLINK-36201 в реальном времени с AllMySat

Download on the App Store